Simultaneous Nadir Overpasses (SNOs) Predictions

Prediction of SNOs between AQUA and METOP-B Satellite Orbit:

Table of predicted SNOs for the next 14.0 days since TLE Epoch: 1/26/2017
Index Date (AQUA) Time (AQUA) Lat,Lon (AQUA) SZA (AQUA ) Date (METOP-B) Time (METOP-B) Lat,Lon (METOP-B) SZA (METOP-B ) Distance(km) Time Diff (sec)
1 01/29/2017 04:23:12 73.69, 108.64 91.66 01/29/2017 04:22:08 73.66, 108.66 91.64 3.63 64
2 01/29/2017 05:12:38 -73.72, -83.79 88.31 01/29/2017 05:12:48 -73.74, -83.81 88.29 2.27 10
3 01/29/2017 06:02:12 74.05, 83.12 92.03 01/29/2017 06:03:22 74.03, 84.22 91.96 33.43 70
4 01/31/2017 23:57:27 73.66, 175.14 90.86 01/31/2017 23:56:27 73.68, 175.12 90.89 1.65 60
5 02/01/2017 00:46:54 -73.75, -17.40 89.06 02/01/2017 00:47:07 -73.76, -17.35 89.05 2.58 13
6 02/01/2017 01:36:30 74.17, 149.26 91.40 02/01/2017 01:37:39 74.15, 150.93 91.29 50.53 69
7 02/03/2017 19:31:44 73.70,-118.50 90.08 02/03/2017 19:30:47 73.69,-118.42 90.09 2.59 57
8 02/03/2017 20:21:10 -73.73, 49.08 89.90 02/03/2017 20:21:28 -73.73, 48.99 89.90 2.68 18
9 02/03/2017 21:10:49 74.31,-144.62 90.73 02/03/2017 21:11:56 74.31,-142.24 90.62 71.58 67
10 02/06/2017 15:06:00 73.69, -52.04 89.22 02/06/2017 15:05:08 73.66, -52.08 89.20 3.33 52
11 02/06/2017 15:55:27 -73.77, 115.43 90.71 02/06/2017 15:55:48 -73.75, 115.45 90.74 2.23 21
12 02/06/2017 16:45:08 74.46, -78.53 90.04 02/06/2017 16:46:13 74.47, -75.40 89.92 93.14 65
13 02/09/2017 10:40:15 73.69, 14.40 88.33 02/09/2017 10:39:27 73.67, 14.36 88.32 1.90 48
14 02/09/2017 11:29:42 -73.76,-178.13 91.61 02/09/2017 11:30:07 -73.76,-178.11 91.62 0.69 25




NCC Satellite Simultaneous Nadir Overpasses (SNOs) Prediction Service
